Date String (YYYY-MM-DD hh:mm:ss) UTC,Instrument flags,Ambient pressure (hPa),Sample flow (lpm),Bypass flow (lpm),Sample temperature (°C),Ambient temperature (°C),ASC tube jacket temperature (°C),LED temperature (°C),Box temperature (°C),Sample RH (%),Span deviation,Mass concentration (μg/m³),Mass concentration (μg/m³),Mass concentration (μg/m³)
DateTimeUTC,F1_M11,P_M11,Q1_M11,Q2_M11,T1_M11,T2_M11,T3_M11,T4_M11,T5_M11,U1_M11,ZSPAN_M11,X0_M11,X2_M11,X1_M11
2022-10-29 05:00:00,,0829.8,5.01,0.00,26.8,25.0,00.0,35.8,28.5,09.9,0000.0,0005.32,0002.93,0002.59
2022-10-29 05:01:00,,0829.7,4.98,0.00,26.8,25.0,00.0,35.7,28.5,09.8,0000.0,0005.27,0002.93,0002.62
2022-10-29 05:02:00,,0829.7,5.00,0.00,26.8,25.0,00.0,35.7,28.5,09.8,0000.0,0005.31,0002.96,0002.65
2022-10-29 05:03:00,,0829.7,5.00,0.00,26.8,25.0,00.0,35.7,28.5,09.8,0000.0,0005.44,0002.98,0002.66
2022-10-29 05:04:00,,0829.7,5.00,0.00,26.8,25.0,00.0,35.7,28.5,09.7,0000.0,0005.22,0003.01,0002.67
2022-10-29 05:05:00,,0829.7,5.01,0.00,26.7,25.0,00.0,35.7,28.4,09.7,0000.0,0006.42,0003.01,0002.68
2022-10-29 05:06:00,,0829.7,5.00,0.00,26.7,25.0,00.0,35.7,28.5,09.7,0000.0,0006.42,0003.02,0002.67
2022-10-29 05:07:00,,0829.6,4.98,0.00,26.7,24.9,00.0,35.7,28.5,09.6,0000.0,0006.41,0002.98,0002.65
2022-10-29 05:08:00,,0829.6,5.01,0.00,26.7,24.9,00.0,35.7,28.4,09.6,0000.0,0006.39,0002.96,0002.65
2022-10-29 05:09:00,,0829.6,5.01,0.00,26.7,24.9,00.0,35.7,28.5,09.5,0000.0,0006.35,0002.93,0002.63
2022-10-29 05:10:00,,0829.7,5.00,0.00,26.7,24.9,00.0,35.7,28.4,09.6,0000.0,0005.76,0002.91,0002.61
2022-10-29 05:11:00,,0829.6,5.00,0.00,26.7,24.9,00.0,35.7,28.4,09.7,0000.0,0005.43,0002.88,0002.58
2022-10-29 05:12:00,,0829.7,5.00,0.00,26.7,24.9,00.0,35.7,28.3,09.6,0000.0,0005.48,0002.88,0002.55
2022-10-29 05:13:00,,0829.8,4.97,0.00,26.7,24.9,00.0,35.6,28.3,09.7,0000.0,0005.45,0002.84,0002.53
2022-10-29 05:14:00,,0829.6,5.00,0.00,26.7,24.8,00.0,35.6,28.3,09.6,0000.0,0005.43,0002.85,0002.51
2022-10-29 05:15:00,,0829.7,5.00,0.00,26.6,24.8,00.0,35.6,28.3,09.6,0000.0,0005.43,0002.84,0002.49
2022-10-29 05:16:00,,0829.9,5.00,0.00,26.6,24.9,00.0,35.6,28.4,09.5,0000.0,0004.46,0002.85,0002.48
2022-10-29 05:17:00,,0829.8,5.00,0.00,26.6,24.8,00.0,35.6,28.3,09.5,0000.0,0004.71,0002.81,0002.46
2022-10-29 05:18:00,,0829.6,5.01,0.00,26.6,24.8,00.0,35.6,28.3,09.4,0000.0,0005.12,0002.80,0002.44
2022-10-29 05:19:00,,0829.6,4.98,0.00,26.6,24.8,00.0,35.6,28.4,09.3,0000.0,0005.72,0002.77,0002.43
2022-10-29 05:20:00,,0829.6,5.01,0.00,26.6,24.9,00.0,35.6,28.4,09.4,0000.0,0005.76,0002.78,0002.42
2022-10-29 05:21:00,,0829.6,5.01,0.00,26.6,24.8,00.0,35.5,28.3,09.4,0000.0,0005.76,0002.78,0002.41
2022-10-29 05:22:00,,0829.5,5.00,0.00,26.6,24.8,00.0,35.5,28.2,09.4,0000.0,0005.79,0002.78,0002.41
2022-10-29 05:23:00,,0829.6,5.01,0.00,26.6,24.8,00.0,35.5,28.3,09.3,0000.0,0005.63,0002.75,0002.42
2022-10-29 05:24:00,,0829.5,5.00,0.00,26.6,24.8,00.0,35.5,28.2,09.3,0000.0,0005.49,0002.72,0002.40
2022-10-29 05:25:00,,0829.6,5.00,0.00,26.5,24.8,00.0,35.5,28.2,09.4,0000.0,0005.56,0002.72,0002.40
2022-10-29 05:26:00,,0829.6,5.00,0.00,26.5,24.8,00.0,35.5,28.3,09.3,0000.0,0005.59,0002.72,0002.40
2022-10-29 05:27:00,,0829.5,4.98,0.00,26.5,24.8,00.0,35.5,28.3,09.3,0000.0,0006.11,0002.73,0002.39
2022-10-29 05:28:00,,0829.6,5.01,0.00,26.5,24.8,00.0,35.5,28.3,09.2,0000.0,0005.93,0002.73,0002.38
2022-10-29 05:29:00,,0829.5,5.00,0.00,26.5,24.8,00.0,35.5,28.3,09.1,0000.0,0005.84,0002.72,0002.38
2022-10-29 05:30:00,,0829.5,4.98,0.00,26.5,24.8,00.0,35.5,28.3,09.0,0000.0,0005.14,0002.70,0002.36
2022-10-29 05:31:00,,0829.5,5.01,0.00,26.5,24.8,00.0,35.5,28.3,09.1,0000.0,0005.06,0002.67,0002.34
2022-10-29 05:32:00,,0829.5,5.00,0.00,26.5,24.7,00.0,35.4,28.2,09.1,0000.0,0005.09,0002.67,0002.34
2022-10-29 05:33:00,,0829.5,5.00,0.00,26.5,24.7,00.0,35.4,28.3,09.0,0000.0,0005.01,0002.65,0002.33
2022-10-29 05:34:00,,0829.5,5.00,0.00,26.5,24.8,00.0,35.4,28.3,09.0,0000.0,0005.02,0002.63,0002.32
2022-10-29 05:35:00,,0829.5,4.98,0.00,26.5,24.7,00.0,35.4,28.2,09.1,0000.0,0005.05,0002.64,0002.32
2022-10-29 05:36:00,,0829.4,5.00,0.00,26.5,24.7,00.0,35.4,28.2,09.2,0000.0,0004.99,0002.63,0002.30
2022-10-29 05:37:00,,0829.5,5.00,0.00,26.5,24.7,00.0,35.4,28.1,09.2,0000.0,0004.72,0002.56,0002.29
2022-10-29 05:38:00,,0829.5,5.01,0.00,26.4,24.7,00.0,35.4,28.1,09.3,0000.0,0004.43,0002.50,0002.27
2022-10-29 05:39:00,,0829.5,4.98,0.00,26.4,24.6,00.0,35.4,28.1,09.2,0000.0,0003.49,0002.46,0002.26
2022-10-29 05:40:00,,0829.5,5.00,0.00,26.4,24.6,00.0,35.4,28.1,09.1,0000.0,0003.32,0002.45,0002.25
2022-10-29 05:41:00,,0829.6,5.01,0.00,26.4,24.6,00.0,35.4,28.1,09.0,0000.0,0003.05,0002.44,0002.24
2022-10-29 05:42:00,,0829.6,5.01,0.00,26.4,24.6,00.0,35.4,28.1,09.1,0000.0,0003.57,0002.42,0002.23
2022-10-29 05:43:00,,0829.6,5.00,0.00,26.4,24.6,00.0,35.3,28.0,09.2,0000.0,0003.98,0002.40,0002.21
2022-10-29 05:44:00,,0829.6,5.00,0.00,26.4,24.6,00.0,35.3,28.1,09.2,0000.0,0004.00,0002.39,0002.18
2022-10-29 05:45:00,,0829.6,5.00,0.00,26.4,24.6,00.0,35.3,28.1,09.0,0000.0,0004.07,0002.39,0002.15
2022-10-29 05:46:00,,0829.6,4.98,0.00,26.3,24.6,00.0,35.3,28.0,09.0,0000.0,0004.06,0002.37,0002.14
2022-10-29 05:47:00,,0829.6,5.01,0.00,26.3,24.5,00.0,35.3,28.0,09.0,0000.0,0004.02,0002.34,0002.11
2022-10-29 05:48:00,,0829.6,5.00,0.00,26.3,24.5,00.0,35.3,28.0,09.1,0000.0,0004.14,0002.35,0002.09
2022-10-29 05:49:00,,0829.6,5.00,0.00,26.3,24.5,00.0,35.3,28.0,09.0,0000.0,0004.22,0002.35,0002.06
2022-10-29 05:50:00,,0829.6,4.98,0.00,26.3,24.5,00.0,35.3,28.0,08.9,0000.0,0004.32,0002.35,0002.04
2022-10-29 05:51:00,,0829.5,5.01,0.00,26.3,24.5,00.0,35.3,28.0,08.7,0000.0,0004.32,0002.32,0002.02
2022-10-29 05:52:00,,0829.5,5.01,0.00,26.3,24.5,00.0,35.2,27.9,08.9,0000.0,0004.43,0002.31,0001.99
2022-10-29 05:53:00,,0829.5,5.01,0.00,26.3,24.5,00.0,35.2,27.9,09.0,0000.0,0003.91,0002.31,0001.97
2022-10-29 05:54:00,,0829.5,5.01,0.00,26.2,24.4,00.0,35.2,28.0,08.8,0000.0,0003.62,0002.30,0001.94
2022-10-29 05:55:00,,0829.6,4.98,0.00,26.2,24.4,00.0,35.2,27.9,08.9,0000.0,0003.77,0002.30,0001.92
2022-10-29 05:56:00,,0829.5,5.01,0.00,26.2,24.4,00.0,35.2,27.8,08.9,0000.0,0003.65,0002.26,0001.90
2022-10-29 05:57:00,,0829.6,5.00,0.00,26.2,24.4,00.0,35.2,27.9,08.9,0000.0,0003.50,0002.20,0001.88
2022-10-29 05:58:00,,0829.6,5.00,0.00,26.2,24.4,00.0,35.2,27.9,09.0,0000.0,0003.44,0002.18,0001.87
2022-10-29 05:59:00,,0829.6,5.00,0.00,26.2,24.4,00.0,35.2,27.9,09.0,0000.0,0003.63,0002.17,0001.88
